Location: Newark
(48.1500°N, 2.9667°W)
Time: 10:14:03
(UTC+00:00)

A-11 Canister half - Pass Details

Date: 28 January 2020
Orbit: 1517 x 1683 km, 47.2° (Epoch: 25 February)

Event Time Altitude Azimuth Distance (km) Brightness Sun altitude
Exits shadow 05:56:19 23° 261° (W) 2,770 9.8 -18.2°
Maximum altitude 06:00:12 32° 223° (SW) 2,394 9.7 -17.6°
Drops below altitude 10° 06:08:02 10° 165° (SSE) 3,711 11.3 -16.3°
Sets 06:11:32 0° 156° (SSE) 4,711 12.1 -15.7°
